Location: Quedlinburg
(51.7921°N, 11.1414°E)
Time: 02:15:12
(UTC+02:00)

BEESAT - Pass Details

Date: 20 March 2026
Orbit: 683 x 693 km, 98.4° (Epoch: 13 April)

Event Time Altitude Azimuth Distance (km) Brightness Sun altitude
Rises 00:57:44 0° 8° (N) 3,065 ? -37.9°
Reaches altitude 10° 01:00:09 10° 359° (N) 2,144 ? -37.9°
Enters shadow 01:01:23 17° 350° (N) 1,726 ? -37.8°
